Aérodrome :
LOGIN :

S'inscrire | Disclaimer

   EN    FR    IT 

 










Légende :    VFR   VFR Marginal   IFR   IFR Intensif   IFR Très Intensif
Visi : 
Plafond : 
>= 8 km
>= 3000ft
5 à 8 km
1000 à 3000 ft
1500m à 5 km
500 à 1000 ft
800 à 1500m
200 à 500 ft
< 800m
< 200 ft
Symboles :   Orages  Brouillard  Fortes neiges  Fortes précipitations  Vent > 20 kt
SIGMETs :   Divers  Orages  Givrage  Turbulence  Onde Orograph.  Cendres Volcan.







- Altitude de l'aérodrome : 291 ft
- Code IATA : ORY
- Voir les cartes d'approche


LFPO - Paris-Orly

DERNIER METAR :
  • 270130Z VRB01KT 9999 FEW049 BKN110 20/15 Q1009 NOSIG

METARs EXPIRÉS :
  • 270100Z VRB02KT CAVOK 20/15 Q1009 NOSIG
  • 270030Z 11009KT CAVOK 20/15 Q1009 NOSIG
  • 270000Z 10008KT 060V120 CAVOK 21/15 Q1009 NOSIG
  • 262330Z 07003KT CAVOK 21/15 Q1010 NOSIG
  • 262300Z VRB02KT CAVOK 21/15 Q1010 NOSIG

TAF TAF LFPO
Valide du 27 à 00h jusqu'au 28 à 06h UTC


262300Z 2700/2806 09008KT CAVOK
TEMPO 2700/2708 4000 -SHRA BKN015 SCT030CB
TEMPO 2708/2720 VRB10G20KT 3000 SHRA BKN020 SCT030CB
PROB40
TEMPO 2712/2718 16020G30KT 2000 TSRA BKN025CB
BECMG 2722/2724 BKN015
ATIS : +33 1 49 75 65 80
Pas de NOTAMs connus pour ce terrain.



MET'MAP, la Météo Aéronautique d'un coup d'oeil ! - Copyright ORBIFLY Décembre 2007 - Disclaimer

ORBIFLY MET'MAP TEAM :

Programmation & Développement : Alexandra Zaïnal
Conception & Développement : Baudouin d'Aumeries
Co-Programmation & Développement : Marc-Olivier Méhu
Soutien technique & logistique : Manuel Goepfert

Contact : metmap@orbifly.com




SOURCES & CREDITS :

   NOAA